Total_Precipitation_Accumulation
0.05 0.03 0.03 0.01 0.00 0.00 0.00 0.00 0.00 0.00 0.00 0.00 0.00 0.00 0.00 0.00 0.00 0.00 0.00 0.00 0.00 0.00 0.01 0.02 0.02 0.03 0.05 0.07 0.09 0.11 0.11 0.08 0.06 0.06 0.06 0.05 0.05 0.05 0.05 0.07 0.09 0.09 0.10
0.06 0.04 0.03 0.02 0.01 0.00 0.00 0.00 0.00 0.00 0.00 0.00 0.00 0.00 0.00 0.00 0.00 0.00 0.00 0.00 0.00 0.00 0.01 0.01 0.02 0.05 0.07 0.09 0.12 0.14 0.14 0.11 0.09 0.08 0.06 0.05 0.04 0.04 0.04 0.05 0.07 0.09 0.10
0.07 0.05 0.03 0.03 0.02 0.00 0.00 0.00 0.00 0.00 0.00 0.00 0.00 0.00 0.00 0.00 0.00 0.00 0.00 0.00 0.00 0.00 0.00 0.01 0.03 0.06 0.08 0.10 0.15 0.20 0.21 0.16 0.12 0.09 0.08 0.07 0.06 0.05 0.03 0.03 0.03 0.05 0.07
0.09 0.07 0.04 0.03 0.02 0.01 0.01 0.01 0.01 0.01 0.01 0.01 0.01 0.01 0.00 0.00 0.00 0.00 0.00 0.00 0.00 0.00 0.00 0.00 0.02 0.04 0.08 0.11 0.16 0.23 0.29 0.24 0.18 0.15 0.12 0.10 0.08 0.06 0.05 0.04 0.04 0.03 0.04
0.11 0.08 0.05 0.04 0.04 0.03 0.02 0.02 0.01 0.01 0.02 0.02 0.02 0.01 0.01 0.00 0.00 0.00 0.00 0.00 0.00 0.00 0.00 0.00 0.01 0.02 0.04 0.07 0.12 0.20 0.29 0.28 0.23 0.19 0.17 0.15 0.13 0.10 0.08 0.08 0.07 0.06 0.06
0.22 0.15 0.10 0.07 0.07 0.06 0.05 0.04 0.04 0.03 0.04 0.04 0.04 0.02 0.01 0.01 0.00 0.00 0.00 0.01 0.01 0.01 0.01 0.01 0.02 0.01 0.02 0.04 0.07 0.12 0.19 0.27 0.28 0.24 0.21 0.18 0.17 0.15 0.13 0.12 0.12 0.11 0.11
0.42 0.30 0.19 0.17 0.14 0.12 0.12 0.13 0.12 0.09 0.08 0.09 0.08 0.04 0.02 0.01 0.01 0.01 0.01 0.01 0.01 0.02 0.02 0.02 0.02 0.02 0.02 0.02 0.04 0.06 0.10 0.19 0.26 0.29 0.28 0.26 0.23 0.21 0.20 0.20 0.20 0.18 0.18
0.59 0.46 0.35 0.29 0.25 0.23 0.21 0.21 0.21 0.19 0.17 0.18 0.17 0.14 0.06 0.02 0.01 0.01 0.01 0.01 0.02 0.02 0.02 0.02 0.02 0.03 0.03 0.02 0.02 0.03 0.05 0.10 0.18 0.26 0.30 0.31 0.29 0.28 0.29 0.32 0.34 0.33 0.31
0.82 0.69 0.58 0.50 0.43 0.38 0.31 0.29 0.29 0.29 0.26 0.24 0.24 0.23 0.15 0.06 0.03 0.01 0.01 0.01 0.02 0.02 0.02 0.03 0.03 0.04 0.03 0.02 0.02 0.02 0.03 0.04 0.09 0.19 0.27 0.31 0.33 0.35 0.40 0.45 0.50 0.53 0.48
1.03 0.94 0.85 0.77 0.66 0.57 0.47 0.42 0.38 0.36 0.34 0.30 0.27 0.23 0.21 0.16 0.14 0.08 0.03 0.03 0.03 0.02 0.04 0.04 0.04 0.04 0.04 0.03 0.03 0.04 0.05 0.05 0.07 0.13 0.24 0.34 0.42 0.47 0.52 0.57 0.62 0.67 0.67
1.04 1.00 0.96 0.91 0.81 0.72 0.66 0.62 0.56 0.51 0.43 0.38 0.33 0.29 0.28 0.21 0.16 0.16 0.10 0.05 0.05 0.05 0.05 0.05 0.04 0.04 0.05 0.05 0.06 0.07 0.09 0.10 0.13 0.18 0.27 0.39 0.48 0.56 0.64 0.69 0.73 0.77 0.80
1.05 0.97 0.95 0.91 0.85 0.80 0.78 0.75 0.72 0.66 0.58 0.51 0.45 0.38 0.36 0.32 0.25 0.23 0.21 0.13 0.11 0.09 0.08 0.06 0.06 0.07 0.08 0.09 0.11 0.15 0.18 0.20 0.23 0.29 0.38 0.46 0.52 0.61 0.73 0.83 0.85 0.85 0.87
0.99 0.94 0.92 0.91 0.88 0.83 0.81 0.79 0.75 0.69 0.66 0.60 0.52 0.47 0.45 0.41 0.36 0.34 0.32 0.22 0.16 0.11 0.10 0.09 0.09 0.10 0.11 0.12 0.16 0.23 0.27 0.32 0.35 0.40 0.48 0.55 0.59 0.63 0.70 0.80 0.92 1.01 1.07
0.99 1.01 0.99 0.96 0.97 0.95 0.89 0.85 0.81 0.77 0.73 0.65 0.56 0.49 0.44 0.39 0.37 0.37 0.37 0.37 0.33 0.24 0.19 0.17 0.17 0.19 0.21 0.23 0.29 0.37 0.39 0.48 0.52 0.55 0.61 0.67 0.71 0.69 0.68 0.71 0.78 0.87 0.95
0.90 0.92 0.93 0.93 0.91 0.88 0.86 0.84 0.79 0.75 0.73 0.68 0.62 0.56 0.48 0.42 0.40 0.40 0.42 0.47 0.56 0.52 0.40 0.30 0.30 0.32 0.36 0.40 0.47 0.48 0.48 0.59 0.64 0.67 0.71 0.73 0.72 0.68 0.64 0.63 0.65 0.67 0.69
0.74 0.78 0.78 0.79 0.79 0.77 0.75 0.74 0.71 0.67 0.64 0.60 0.58 0.57 0.53 0.48 0.46 0.45 0.48 0.53 0.61 0.69 0.65 0.48 0.41 0.43 0.48 0.53 0.60 0.56 0.54 0.62 0.62 0.63 0.65 0.64 0.59 0.54 0.51 0.50 0.52 0.57 0.60
0.55 0.59 0.61 0.62 0.63 0.64 0.64 0.63 0.57 0.54 0.53 0.52 0.50 0.50 0.51 0.48 0.48 0.48 0.52 0.58 0.65 0.73 0.78 0.67 0.58 0.55 0.56 0.54 0.53 0.48 0.44 0.44 0.44 0.51 0.51 0.49 0.45 0.41 0.41 0.43 0.45 0.47 0.50
0.45 0.46 0.47 0.48 0.46 0.46 0.48 0.49 0.50 0.49 0.46 0.45 0.46 0.48 0.49 0.48 0.49 0.49 0.51 0.56 0.61 0.65 0.68 0.66 0.57 0.51 0.46 0.42 0.38 0.34 0.30 0.28 0.27 0.34 0.37 0.37 0.36 0.34 0.34 0.35 0.37 0.39 0.44
0.36 0.36 0.34 0.34 0.36 0.36 0.37 0.39 0.39 0.41 0.42 0.41 0.41 0.41 0.42 0.42 0.43 0.44 0.45 0.48 0.49 0.49 0.49 0.47 0.42 0.37 0.33 0.30 0.27 0.22 0.18 0.16 0.15 0.18 0.20 0.20 0.21 0.22 0.24 0.25 0.27 0.28 0.29
0.27 0.26 0.26 0.24 0.25 0.26 0.28 0.31 0.33 0.34 0.35 0.35 0.35 0.36 0.37 0.38 0.40 0.43 0.44 0.43 0.42 0.39 0.37 0.36 0.35 0.29 0.25 0.20 0.17 0.14 0.11 0.10 0.09 0.07 0.09 0.08 0.09 0.09 0.09 0.10 0.10 0.10 0.11
0.16 0.17 0.19 0.21 0.21 0.21 0.21 0.23 0.26 0.30 0.32 0.34 0.37 0.41 0.44 0.49 0.49 0.44 0.38 0.34 0.31 0.29 0.30 0.31 0.27 0.21 0.16 0.13 0.11 0.09 0.08 0.07 0.05 0.03 0.03 0.02 0.02 0.02 0.02 0.02 0.03 0.03 0.05
0.13 0.14 0.16 0.18 0.22 0.25 0.35 0.32 0.27 0.27 0.32 0.36 0.39 0.41 0.43 0.46 0.43 0.40 0.34 0.28 0.26 0.28 0.29 0.26 0.20 0.13 0.09 0.07 0.06 0.07 0.07 0.08 0.05 0.01 0.01 0.01 0.00 0.00 0.00 0.00 0.01 0.02 0.04
0.23 0.24 0.25 0.27 0.31 0.40 0.50 0.46 0.45 0.37 0.36 0.37 0.37 0.35 0.31 0.28 0.26 0.22 0.22 0.23 0.23 0.21 0.17 0.13 0.08 0.05 0.04 0.04 0.07 0.10 0.09 0.10 0.07 0.01 0.02 0.01 0.00 0.00 0.00 0.00 0.00 0.01 0.02
0.43 0.46 0.49 0.50 0.51 0.57 0.59 0.50 0.44 0.38 0.38 0.36 0.32 0.27 0.21 0.16 0.13 0.13 0.15 0.18 0.11 0.07 0.04 0.03 0.03 0.02 0.03 0.04 0.07 0.13 0.12 0.09 0.03 0.00 0.00 0.01 0.00 0.00 0.00 0.00 0.00 0.00 0.01
0.72 0.70 0.67 0.61 0.55 0.53 0.49 0.42 0.36 0.31 0.29 0.26 0.21 0.17 0.14 0.10 0.10 0.14 0.14 0.10 0.06 0.03 0.03 0.03 0.04 0.04 0.04 0.04 0.04 0.06 0.09 0.10 0.06 0.00 0.00 0.00 0.00 0.00 0.00 0.00 0.00 0.00 0.00
0.65 0.63 0.61 0.57 0.49 0.40 0.33 0.26 0.22 0.18 0.15 0.13 0.11 0.09 0.09 0.08 0.11 0.14 0.10 0.07 0.05 0.04 0.04 0.03 0.02 0.01 0.01 0.01 0.01 0.02 0.09 0.24 0.20 0.09 0.00 0.03 0.05 0.07 0.13 0.01 0.00 0.00 0.00